Calgary / Springba, Alberta

1:56 PM MST on February 27, 2017 (GMT -0700)
Springbank

Weather History for CYBW - April, 2012

Change the Weather History Date:

Saturday, April 28, 2012

  Actual Average Record
Temperature  
Mean Temperature 45 °F -  
Max Temperature 55 °F 55 °F 77 °F (2015)
Min Temperature 35 °F 32 °F 10 °F (2005)
Degree Days  
Heating Degree Days 20    
Moisture  
Dew Point 27 °F    
Average Humidity 48    
Maximum Humidity 93    
Minimum Humidity 21    
Precipitation  
Precipitation 0.00 in - - ()
Sea Level Pressure  
Sea Level Pressure 30.10 in    
Wind  
Wind Speed 6 mph ()    
Max Wind Speed 10 mph    
Max Gust Speed -    
Visibility 15.0 miles    
Events      
Averages and records for this station are not official NWS values.
T = Trace of Precipitation, MM = Missing Value Source: Averaged Metar Reports

Daily Weather History Graph

Daily Weather History Graph

Search for Another Location

Airport or City:

Trip Planner

Search our weather history database for the weather conditions in past years. The results will help you decide how hot, cold, wet, or windy it might be!

Date:

Astronomy

Apr. 28, 2012 Rise Set
Actual Time 6:15 AM MDT 8:55 PM MDT
Civil Twilight 5:37 AM MDT 9:33 PM MDT
Nautical Twilight 4:50 AM MDT 10:21 PM MDT
Astronomical Twilight 3:52 AM MDT 11:19 PM MDT
Moon 11:56 AM MDT (4/28) 2:27 AM MDT (4/28)
Length of Visible Light 15h 55m
Length of Day
14h 40m
Waxing Crescent, 43% of the Moon is Illuminated
Apr 28
Waxing Crescent
Apr 29
First Quarter
May 5
Full
May 12
Last Quarter
May 20
New

Hourly Weather History & Observations

Time (MDT) Temp. Windchill Dew Point Humidity Pressure Visibility Wind Dir Wind Speed Gust Speed Precip Events Conditions
5:00 AM 35.6 °F 31.7 °F 33.8 °F 93% 30.12 in 15.0 mi NNW 4.6 mph - N/A   Overcast
6:00 AM 36 °F - 31 °F 75% 30.14 in 28 mi NNW 8.1 mph - -   Partly Cloudy
6:00 AM 35.6 °F 29.2 °F 30.2 °F 81% 30.14 in 30.0 mi NW 8.1 mph - N/A   Overcast
7:00 AM 37.4 °F 31.4 °F 30.2 °F 75% 30.15 in 30.0 mi NW 8.1 mph - N/A   Overcast
8:00 AM 37.4 °F 33.8 °F 32.0 °F 81% 30.16 in 30.0 mi NW 4.6 mph - N/A   Mostly Cloudy
9:00 AM 42.8 °F 37.0 °F 28.4 °F 57% 30.16 in 30.0 mi NNW 10.4 mph - N/A   Scattered Clouds
10:00 AM 44.6 °F 40.2 °F 28.4 °F 53% 30.16 in 30.0 mi NW 8.1 mph - N/A   Scattered Clouds
11:00 AM 48.2 °F - 24.8 °F 40% 30.16 in 30.0 mi NW 10.4 mph - N/A   Scattered Clouds
12:00 PM 48 °F - 24 °F 26% 30.14 in 28 mi WNW 4.6 mph - -   Partly Cloudy
12:00 PM 48.2 °F - 23.0 °F 37% 30.14 in 30.0 mi WNW 6.9 mph - N/A   Mostly Cloudy
1:00 PM 51.8 °F - 24.8 °F 35% 30.14 in 30.0 mi West 4.6 mph - N/A   Mostly Cloudy
2:00 PM 51.8 °F - 23.0 °F 33% 30.12 in 30.0 mi NE 3.5 mph - N/A   Scattered Clouds
3:00 PM 51.8 °F - 24.8 °F 35% 30.09 in 30.0 mi East 4.6 mph - N/A   Scattered Clouds
4:00 PM 53.6 °F - 24.8 °F 33% 30.07 in 30.0 mi East 3.5 mph - N/A   Partly Cloudy
5:00 PM 55.4 °F - 26.6 °F 33% 30.06 in 30.0 mi ENE 2.3 mph - N/A   Scattered Clouds
6:00 PM 55 °F - 26 °F 21% 30.03 in 28 mi SE 3.5 mph - -   Scattered Clouds
6:00 PM 55.4 °F - 26.6 °F 33% 30.03 in 30.0 mi ESE 4.6 mph - N/A   Scattered Clouds
7:00 PM 53.6 °F - 26.6 °F 35% 30.03 in 30.0 mi South 8.1 mph - N/A   Partly Cloudy
8:00 PM 51.8 °F - 28.4 °F 41% 30.03 in 30.0 mi SSE 9.2 mph - N/A   Partly Cloudy
9:00 PM 48.2 °F - 26.6 °F 43% 30.03 in 30.0 mi South 8.1 mph - N/A   Scattered Clouds
10:00 PM 42.8 °F 37.5 °F 26.6 °F 53% 30.04 in 15.0 mi South 9.2 mph - N/A   Partly Cloudy